Home > Weather > Passau > Past weeks

Flag for Germany Weather for the Past 2 Weeks in Passau, Bavaria, Germany

Now
34 °F

Chilly.


Feels Like: 30 °F
Forecast: 30 / 51 °F
Wind: 5 mph from East

Location: Linz / Hoersching-Flughafen

Current Time: Feb 6, 2016 at 2:27:45 AM

Latest Report: Feb 6, 2016 at 1:20 AM


Visibility: 4 mi

Pressure: 30.30 "Hg

Humidity: 93%

Dew point: 32 °F

Location of PassauLocation

Historic Weather in Passau — Graph

°F

Passau Temperature Yesterday

Maximum temperature yesterday: 41 °F (at 12:20 PM)
Minimum temperature yesterday: 34 °F (at 11:50 PM)
Average temperature yesterday: 38 °F

High & Low Weather Summary for the Past Weeks

 TemperatureHumidityPressure
High55 °F (Jan 28, 2:20 PM)100% (Jan 23, 1:20 AM)30.60 "Hg (Jan 23, 1:20 AM)
Low7 °F (Jan 22, 6:20 AM)55% (Jan 28, 2:20 PM)29.86 "Hg (Jan 31, 1:20 AM)
Average37 °F89%30.28 "Hg
* Reported Jan 22 12:50 AM — Feb 6 12:50 AM, Passau, Weather by CustomWeather, © 2016

Note: Actual official high and low records may vary slightly from our data, if they occured in-between our weather recording intervals... More about our weather records

Advertising

Passau Weather History for the Previous 24 Hours

 ConditionsComfort  
Time TempWeatherWind HumidityBarometerVisibility
12:50 AM
Sat, Feb 6
34 °FChilly.6 mph100%30.30 "Hg4 mi
12:20 AM34 °FPassing clouds.6 mph100%30.30 "Hg5 mi
11:50 PM
Fri, Feb 5
34 °FPassing clouds.5 mph93%30.30 "Hg6 mi
11:20 PM36 °FPassing clouds.5 mph93%30.33 "Hg6 mi
10:50 PM36 °FPassing clouds.3 mph93%30.33 "Hg5 mi
10:20 PM36 °FPassing clouds.2 mph93%30.33 "Hg5 mi
9:50 PM36 °FPartly cloudy.2 mph93%30.33 "HgN/A
9:20 PM37 °FPartly cloudy.2 mph87%30.33 "HgN/A
8:50 PM37 °FPartly cloudy.1 mph87%30.33 "HgN/A
8:20 PM39 °FPartly cloudy.2 mph81%30.36 "HgN/A
7:50 PM39 °FPartly cloudy.1 mph81%30.36 "HgN/A
7:20 PM39 °FPartly cloudy.3 mph81%30.36 "HgN/A
6:50 PM39 °FPartly cloudy.1 mph81%30.36 "HgN/A
6:20 PM39 °FPassing clouds.No wind81%30.36 "HgN/A
5:50 PM39 °FPassing clouds.2 mph81%30.36 "HgN/A
5:20 PM39 °FPassing clouds.3 mph81%30.33 "HgN/A
4:50 PM39 °FPartly sunny.7 mph81%30.33 "HgN/A
4:20 PM41 °FPartly sunny.8 mph76%30.33 "HgN/A
3:50 PM41 °FPartly sunny.8 mph76%30.33 "HgN/A
3:20 PM41 °FBroken clouds.10 mph70%30.36 "HgN/A
2:50 PM41 °FBroken clouds.10 mph70%30.36 "HgN/A
2:20 PM41 °FBroken clouds.10 mph66%30.36 "HgN/A
1:50 PM41 °FPartly sunny.10 mph66%30.36 "HgN/A
1:20 PM41 °FPartly sunny.10 mph61%30.36 "HgN/A
12:50 PM39 °FPartly sunny.9 mph70%30.36 "HgN/A
12:20 PM41 °FBroken clouds.10 mph66%30.39 "HgN/A
11:50 AM39 °FBroken clouds.12 mph70%30.39 "HgN/A
11:20 AM39 °FScattered clouds.12 mph70%30.39 "HgN/A
10:50 AM39 °FScattered clouds.10 mph75%30.39 "HgN/A
10:20 AM39 °FScattered clouds.14 mph75%30.39 "HgN/A
9:50 AM37 °FPartly sunny.10 mph81%30.39 "HgN/A
9:20 AM37 °FPartly sunny.9 mph87%30.39 "HgN/A
8:50 AM37 °FPartly sunny.10 mph81%30.39 "HgN/A
8:20 AM36 °FPartly sunny.10 mph87%30.39 "HgN/A
7:50 AM36 °FPartly sunny.9 mph87%30.36 "HgN/A
7:20 AM36 °FPassing clouds.9 mph87%30.36 "HgN/A
6:50 AM36 °FPassing clouds.12 mph87%30.33 "HgN/A
6:20 AM36 °FPassing clouds.10 mph87%30.33 "HgN/A
5:50 AM36 °FPartly cloudy.10 mph87%30.30 "HgN/A
5:20 AM36 °FPassing clouds.7 mph87%30.30 "HgN/A
4:50 AM36 °FPartly cloudy.5 mph87%30.27 "HgN/A
4:20 AM36 °FOvercast.5 mph87%30.27 "HgN/A
3:50 AM36 °FPassing clouds.5 mph87%30.24 "HgN/A
3:20 AM36 °FPassing clouds.9 mph87%30.24 "HgN/A
2:50 AM36 °FPassing clouds.9 mph87%30.21 "HgN/A
2:20 AM36 °FOvercast.13 mph87%30.21 "HgN/A
Weather by CustomWeather, © 2016

See weather overviewHow to use our weather pages